Regional Weather Roundup
Issued by NWS

Home | Current Version | Previous Version | Text Only | Print | Product List | Glossary On
Versions: 1 2 3 4 5 6 7 8 9 10 11 12 13 14 15 16 17 18 19 20 21 22 23 24 25 26 27 28 29 30 31 32 33 34 35 36 37 38 39 40 41 42 43 44 45 46 47 48 49 50
000
ASUS43 KDMX 190307
RWRIA

WEATHER ROUNDUP FOR IOWA
NATIONAL WEATHER SERVICE DES MOINES IA
1000 PM CDT SAT APR 18 2015

NOTE: "FAIR" INDICATES FEW OR NO CLOUDS BELOW 12,000 FEET WITH NO
SIGNIFICANT WEATHER AND/OR OBSTRUCTIONS TO VISIBILITY.

* - THESE STATIONS ARE NOT NWS STATIONS...THUS NOT UNDER NWS
QUALITY CONTROL.  THEY ALSO DO NOT REPORT WEATHER SUCH
AS PRECIPITATION OR FOG.

IAZ001>003-012>014-020>022-031>034-043>046-190400-
   NORTHWEST IOWA

CITY           SKY/WX    TMP DP  RH WIND       PRES   REMARKS
CARROLL *      CLOUDY    57  57 100 S8        29.83R
CHEROKEE *     LGT RAIN  57  57 100 CALM      29.85R
DENISON *      MOCLDY    57  57 100 CALM      29.81F FOG
LE MARS *      PTCLDY    57  55  94 S5        29.83S
ORANGE CITY *  MOCLDY   N/A N/A N/A SE6       29.83R
SHELDON *      CLOUDY    55  55 100 SE6       29.83R FOG
SIOUX CITY     CLOUDY    57  54  89 E7        29.81F
SPENCER        LGT RAIN  56  54  93 SE6       29.85R
STORM LAKE *   RAIN      55  55 100 CALM      29.86R
$$

IAZ055>058-069>071-079>083-090>094-190400-
   SOUTHWEST IOWA

CITY           SKY/WX    TMP DP  RH WIND       PRES   REMARKS
ATLANTIC *     CLOUDY    59  59 100 S3        29.82F
AUDUBON *      CLOUDY    57  54  88 SE5       29.84S
CLARINDA *     FOG       57  57 100 CALM      29.84F VSB 1/4
COUNCIL BLFS * CLEAR     57  57 100 S9        29.82F
CRESTON *      CLOUDY    57  57 100 SE5       29.84S
HARLAN  *      CLOUDY    57  57 100 CALM      29.85F
LAMONI         CLOUDY    60  58  92 S3        29.84S
RED OAK *      CLOUDY    57  57 100 CALM      29.83F
SHENANDOAH *   CLEAR     55  55 100 CALM      29.84S FOG
$$

IAZ047>049-059>061-072>074-084-190400-
   CENTRAL IOWA

CITY           SKY/WX    TMP DP  RH WIND       PRES   REMARKS
AMES           CLOUDY    59  57  93 E3        29.83S
ANKENY *       MOCLDY    59  59 100 CALM      29.82S
CHARITON *     CLOUDY    57  57 100 SE6       29.83S
DES MOINES     CLOUDY    62  59  90 SE3       29.82F
GRINNELL*      CLOUDY    57  55  94 NE8       29.85F
KNOXVILLE *    CLOUDY    57  55  94 E5        29.82F
MARSHALLTOWN   CLOUDY    58  55  90 E13       29.85F
PELLA *        CLOUDY    59  59 100 SE5       29.85S
PERRY *        CLOUDY    59  59 100 CALM      29.82F FOG
$$

IAZ004>006-015-016-023>025-035-036-190400-
   NORTH CENTRAL IOWA

CITY           SKY/WX    TMP DP  RH WIND       PRES   REMARKS
ALGONA *       CLOUDY    57  57 100 E13G20    29.84F FOG
CLARION *      CLOUDY    57  57 100 E13       29.84F
ESTHERVILLE    CLOUDY    56  55  97 SE13      29.83F
FORT DODGE *   CLOUDY    57  54  88 E10       29.83F
MASON CITY     LGT RAIN  57 N/A N/A E13       29.89F
FOREST CITY *  RAIN      54  54 100 E13       29.87F
IOWA FALLS *   CLOUDY    57  57 100 E17       29.88S FOG
$$

IAZ007>011-017>019-026>030-037>042-050>054-066-190400-
   NORTHEAST IOWA

CITY           SKY/WX    TMP DP  RH WIND       PRES   REMARKS
CEDAR RAPIDS   RAIN      58  57  97 N9        29.90F
CHARLES CITY * LGT RAIN  57  57 100 E9        29.93F
CLINTON *      CLOUDY    63  37  39 SE18G29   29.96R
DECORAH *      CLOUDY    61  34  36 E15G23    29.90F
DUBUQUE        CLOUDY    63  38  39 E16G26    29.93S
MONTICELLO *   MOCLDY    64  45  48 E13G18    29.90R
OELWEIN *      CLOUDY    59  55  88 S8        29.95S
WATERLOO       CLOUDY    58  57  97 E5        29.91F
$$

IAZ064-065-067-068-078-190400-
   EAST CENTRAL IOWA

CITY           SKY/WX    TMP DP  RH WIND       PRES   REMARKS
DAVENPORT      MOCLDY    63  43  48 E20G25    29.92R
IOWA CITY      CLOUDY    60  57  89 N6        29.91S
MT. PLEASANT * LGT RAIN  63  54  72 CALM      29.86F
MUSCATINE *    MOCLDY    64  54  68 NW6       29.90S
QUAD CITIES    MOCLDY    63  46  54 E15       29.91S
$$

IAZ062-063-075>077-085>089-095>099-190400-
   SOUTHEAST IOWA

CITY           SKY/WX    TMP DP  RH WIND       PRES   REMARKS
BURLINGTON     CLOUDY    64  55  72 CALM      29.87F
FAIRFIELD *    MOCLDY    59  55  88 E8        29.87F
FORT MADISON * CLEAR     61  57  88 CALM      29.87F
KEOKUK *       CLEAR     61  59  94 CALM      29.86F
OSKALOOSA *      N/A     57  55  94 E3        29.86S
CENTERVILLE *  PTCLDY    55  55 100 E5        29.86S
OTTUMWA        CLOUDY    58  57  97 E3        29.86S
WASHINGTON *   CLOUDY    63  57  82 S6G13     29.87S
$$

ABBREVIATIONS USED IN REMARKS
   TC - TEMPERATURES IN CELSIUS
  WCI - WIND CHILL INDEX
   HX - HEAT INDEX
  VSB - VISIBILITY
$$




USA.gov is the U.S. government's official web portal to all federal, state and local government web resources and services.